• în România
  • Lista ţărilor
  • Pe 7 zile
  • Temperatura apei
  • Hartă satelitară
  • Meteo pe hartă
  • Widget-uri
  • user-avatar
    Intrare

    Meteo pe oră la Mahdia

    Astăzi, 19 Iunie, Marţi

    Timp Temperatura Precipitaţii Vânt Presiune Umiditate
    00:00 +24°C° 0 mm 9 m/s 761 mmHg 56%
    01:00 +23°C° 0 mm 9 m/s 761 mmHg 59%
    02:00 +23°C° 0 mm 9 m/s 761 mmHg 61%
    03:00 +23°C° 0 mm 8 m/s 761 mmHg 63%
    04:00 +22°C° 0 mm 8 m/s 761 mmHg 65%
    05:00 +23°C° 0 mm 8 m/s 761 mmHg 65%
    06:00 +23°C° 0 mm 8 m/s 761 mmHg 64%
    07:00 +23°C° 0 mm 8 m/s 761 mmHg 63%
    08:00 +24°C° 0 mm 8 m/s 761 mmHg 58%
    09:00 +27°C° 0 mm 8 m/s 761 mmHg 53%
    10:00 +28°C° 0 mm 8 m/s 761 mmHg 49%
    11:00 +29°C° 0 mm 7 m/s 761 mmHg 46%
    12:00 +30°C° 0 mm 7 m/s 761 mmHg 44%
    13:00 +32°C° 0 mm 7 m/s 761 mmHg 41%
    14:00 +32°C° 0 mm 7 m/s 761 mmHg 43%
    15:00 +30°C° 0 mm 7 m/s 761 mmHg 44%
    16:00 +30°C° 0 mm 7 m/s 760 mmHg 46%
    17:00 +29°C° 0 mm 7 m/s 761 mmHg 49%
    18:00 +29°C° 0 mm 7 m/s 761 mmHg 53%
    19:00 +28°C° 0 mm 7 m/s 761 mmHg 56%
    20:00 +28°C° 0 mm 6 m/s 761 mmHg 59%
    21:00 +27°C° 0 mm 6 m/s 762 mmHg 62%
    22:00 +27°C° 0 mm 6 m/s 762 mmHg 64%
    23:00 +26°C° 0 mm 6 m/s 762 mmHg 65%

    Mâine, 20 Iunie, Miercuri

    Timp Temperatura Precipitaţii Vânt Presiune Umiditate
    00:00 +26°C° 0 mm 6 m/s 762 mmHg 65%
    01:00 +26°C° 0 mm 6 m/s 762 mmHg 66%
    02:00 +26°C° 0 mm 6 m/s 762 mmHg 67%
    03:00 +24°C° 0 mm 6 m/s 762 mmHg 67%
    04:00 +24°C° 0 mm 6 m/s 762 mmHg 68%
    05:00 +24°C° 0 mm 7 m/s 762 mmHg 66%
    06:00 +26°C° 0 mm 7 m/s 762 mmHg 64%
    07:00 +26°C° 0 mm 7 m/s 762 mmHg 62%
    08:00 +27°C° 0 mm 7 m/s 762 mmHg 59%
    09:00 +28°C° 0 mm 7 m/s 763 mmHg 56%
    10:00 +29°C° 0 mm 7 m/s 763 mmHg 53%
    11:00 +29°C° 0 mm 6 m/s 763 mmHg 52%
    12:00 +30°C° 0 mm 6 m/s 763 mmHg 50%
    13:00 +30°C° 0 mm 6 m/s 763 mmHg 48%
    14:00 +30°C° 0 mm 6 m/s 763 mmHg 48%
    15:00 +30°C° 0 mm 5 m/s 762 mmHg 48%
    16:00 +30°C° 0 mm 5 m/s 762 mmHg 48%
    17:00 +30°C° 0 mm 5 m/s 762 mmHg 51%
    18:00 +29°C° 0 mm 4 m/s 762 mmHg 54%
    19:00 +28°C° 0 mm 4 m/s 762 mmHg 56%
    20:00 +28°C° 0 mm 3 m/s 763 mmHg 60%
    21:00 +27°C° 0 mm 3 m/s 763 mmHg 63%
    22:00 +26°C° 0 mm 2 m/s 764 mmHg 66%
    23:00 +26°C° 0 mm 2 m/s 763 mmHg 67%

    Poimâine, 21 Iunie, Joi

    Timp Temperatura Precipitaţii Vânt Presiune Umiditate
    00:00 +26°C° 0 mm 1 m/s 763 mmHg 68%
    01:00 +24°C° 0 mm 0 m/s 763 mmHg 69%
    02:00 +24°C° 0 mm 0 m/s 763 mmHg 69%
    03:00 +24°C° 0 mm 0 m/s 763 mmHg 69%
    04:00 +25°C° 0 mm 1 m/s 762 mmHg 70%
    05:00 +26°C° 0 mm 1 m/s 762 mmHg 68%
    06:00 +26°C° 0 mm 1 m/s 763 mmHg 66%
    07:00 +26°C° 0 mm 1 m/s 763 mmHg 64%
    08:00 +27°C° 0 mm 1 m/s 763 mmHg 59%
    09:00 +28°C° 0 mm 1 m/s 763 mmHg 55%
    10:00 +29°C° 0 mm 1 m/s 763 mmHg 51%
    11:00 +30°C° 0 mm 2 m/s 763 mmHg 48%
    12:00 +31°C° 0 mm 3 m/s 763 mmHg 45%
    13:00 +33°C° 0 mm 3 m/s 762 mmHg 42%
    14:00 +33°C° 0 mm 4 m/s 762 mmHg 42%
    15:00 +33°C° 0 mm 4 m/s 762 mmHg 42%
    16:00 +33°C° 0 mm 5 m/s 761 mmHg 41%
    17:00 +33°C° 0 mm 5 m/s 761 mmHg 43%
    18:00 +32°C° 0 mm 5 m/s 761 mmHg 45%
    19:00 +30°C° 0 mm 4 m/s 761 mmHg 46%
    20:00 +30°C° 0 mm 4 m/s 761 mmHg 48%
    21:00 +29°C° 0 mm 4 m/s 762 mmHg 51%
    22:00 +28°C° 0 mm 4 m/s 762 mmHg 53%
    23:00 +28°C° 0 mm 4 m/s 762 mmHg 55%

    22 Iunie, Vineri

    Timp Temperatura Precipitaţii Vânt Presiune Umiditate
    00:00 +28°C° 0 mm 4 m/s 761 mmHg 58%
    01:00 +27°C° 0 mm 4 m/s 761 mmHg 60%
    02:00 +27°C° 0 mm 4 m/s 761 mmHg 62%
    03:00 +27°C° 0 mm 4 m/s 761 mmHg 64%
    04:00 +26°C° 0 mm 4 m/s 760 mmHg 66%
    05:00 +27°C° 0 mm 4 m/s 761 mmHg 65%
    06:00 +27°C° 0 mm 4 m/s 761 mmHg 64%
    07:00 +27°C° 0 mm 4 m/s 761 mmHg 63%
    08:00 +29°C° 0 mm 4 m/s 761 mmHg 55%
    09:00 +32°C° 0 mm 4 m/s 761 mmHg 47%
    10:00 +33°C° 0 mm 4 m/s 761 mmHg 40%
    11:00 +34°C° 0 mm 4 m/s 761 mmHg 37%
    12:00 +35°C° 0 mm 4 m/s 761 mmHg 34%
    13:00 +36°C° 0 mm 5 m/s 760 mmHg 31%
    14:00 +36°C° 0 mm 5 m/s 760 mmHg 31%
    15:00 +36°C° 0 mm 5 m/s 760 mmHg 31%
    16:00 +38°C° 0 mm 6 m/s 759 mmHg 30%
    17:00 +35°C° 0 mm 6 m/s 759 mmHg 34%
    18:00 +34°C° 0 mm 6 m/s 759 mmHg 38%
    19:00 +33°C° 0 mm 6 m/s 759 mmHg 42%
    20:00 +32°C° 0 mm 5 m/s 760 mmHg 46%
    21:00 +30°C° 0 mm 5 m/s 760 mmHg 50%
    22:00 +29°C° 0 mm 4 m/s 761 mmHg 55%
    23:00 +29°C° 0 mm 3 m/s 760 mmHg 56%

    23 Iunie, Sâmbătă

    Timp Temperatura Precipitaţii Vânt Presiune Umiditate
    00:00 +29°C° 0 mm 2 m/s 760 mmHg 58%
    01:00 +28°C° 0 mm 2 m/s 760 mmHg 59%
    02:00 +28°C° 0 mm 1 m/s 760 mmHg 61%
    03:00 +28°C° 0 mm 1 m/s 760 mmHg 63%
    04:00 +27°C° 0 mm 1 m/s 760 mmHg 65%
    05:00 +28°C° 0 mm 1 m/s 760 mmHg 63%
    06:00 +28°C° 0 mm 1 m/s 761 mmHg 62%
    07:00 +28°C° 0 mm 1 m/s 761 mmHg 60%
    08:00 +29°C° 0 mm 1 m/s 761 mmHg 52%
    09:00 +31°C° 0 mm 2 m/s 761 mmHg 45%
    10:00 +32°C° 0 mm 2 m/s 761 mmHg 37%
    11:00 +34°C° 0 mm 2 m/s 761 mmHg 35%
    12:00 +34°C° 0 mm 2 m/s 761 mmHg 32%
    13:00 +35°C° 0 mm 3 m/s 761 mmHg 30%
    14:00 +36°C° 0 mm 3 m/s 761 mmHg 30%
    15:00 +36°C° 0 mm 4 m/s 760 mmHg 29%
    16:00 +36°C° 0 mm 5 m/s 760 mmHg 29%
    17:00 +34°C° 0 mm 5 m/s 760 mmHg 34%
    18:00 +33°C° 0 mm 5 m/s 760 mmHg 38%
    19:00 +30°C° 0 mm 5 m/s 760 mmHg 43%
    20:00 +30°C° 0 mm 5 m/s 761 mmHg 46%
    21:00 +29°C° 0 mm 4 m/s 761 mmHg 49%
    22:00 +28°C° 0 mm 3 m/s 761 mmHg 52%
    23:00 +28°C° 0 mm 3 m/s 761 mmHg 53%

    24 Iunie, Duminică

    Timp Temperatura Precipitaţii Vânt Presiune Umiditate
    00:00 +28°C° 0 mm 2 m/s 761 mmHg 54%
    01:00 +27°C° 0 mm 2 m/s 761 mmHg 54%
    02:00 +27°C° 0 mm 2 m/s 761 mmHg 55%
    03:00 +27°C° 0 mm 2 m/s 761 mmHg 56%
    04:00 +27°C° 0 mm 2 m/s 761 mmHg 57%
    05:00 +27°C° 0 mm 2 m/s 761 mmHg 56%
    06:00 +27°C° 0 mm 2 m/s 761 mmHg 55%
    07:00 +27°C° 0 mm 2 m/s 761 mmHg 54%
    08:00 +28°C° 0 mm 2 m/s 761 mmHg 49%
    09:00 +29°C° 0 mm 3 m/s 761 mmHg 45%
    10:00 +31°C° 0 mm 3 m/s 761 mmHg 41%
    11:00 +31°C° 0 mm 3 m/s 761 mmHg 39%
    12:00 +33°C° 0 mm 4 m/s 760 mmHg 38%
    13:00 +34°C° 0 mm 4 m/s 760 mmHg 37%
    14:00 +34°C° 0 mm 5 m/s 760 mmHg 38%
    15:00 +34°C° 0 mm 5 m/s 760 mmHg 39%
    16:00 +34°C° 0 mm 6 m/s 760 mmHg 39%
    17:00 +33°C° 0 mm 6 m/s 760 mmHg 44%
    18:00 +30°C° 0 mm 5 m/s 760 mmHg 49%
    19:00 +29°C° 0 mm 5 m/s 760 mmHg 54%
    20:00 +29°C° 0 mm 5 m/s 760 mmHg 57%
    21:00 +28°C° 0 mm 5 m/s 761 mmHg 60%
    22:00 +27°C° 0 mm 4 m/s 761 mmHg 63%
    23:00 +27°C° 0 mm 3 m/s 761 mmHg 63%
    Arată mai mult